Weather History for Haleyville, AL

Change the Weather History Date:

Sunday, October 23, 2011

  Actual Average (KJFX) Record (KJFX)
Temperature  
Mean Temperature 48 °F -  
Max Temperature 63 °F 71 °F 84 °F (2012)
Min Temperature 34 °F 44 °F 30 °F (1961)
Degree Days  
Heating Degree Days 16    
Moisture  
Dew Point 44 °F    
Average Humidity 83    
Maximum Humidity 100    
Minimum Humidity 37    
Precipitation  
Precipitation 0.03 in - - ()
Sea Level Pressure  
Sea Level Pressure 30.17 in    
Wind  
Wind Speed 1 mph (SE)    
Max Wind Speed 6 mph    
Max Gust Speed -    
Visibility 9 miles    
Events Rain    
Averages and records for this station are not official NWS values.
T = Trace of Precipitation, MM = Missing Value Source: NWS Daily Summary

Daily Weather History Graph

Daily Weather History Graph

Search for Another Location

Airport:

Trip Planner

Search our weather history database for the weather conditions in past years. The results will help you decide how hot, cold, wet, or windy it might be!

Date:

Astronomy

Oct. 23, 2011 Rise Set
Actual Time 7:02 AM CDT 6:06 PM CDT
Civil Twilight 6:36 AM CDT 6:32 PM CDT
Nautical Twilight 6:07 AM CDT 7:01 PM CDT
Astronomical Twilight 5:38 AM CDT 7:30 PM CDT
Moon 3:17 AM CDT (10/23) 3:50 PM CDT (10/23)
Length of Visible Light 11h 55m
Length of Day
11h 04m
Waning Crescent, 14% of the Moon is Illuminated
Oct 23
Waning Crescent
Oct 26
New
Nov 2
First Quarter
Nov 10
Full
Nov 18
Last Quarter

Hourly Weather History & Observations

Time (CDT) Temp. Dew Point Humidity Pressure Visibility Wind Dir Wind Speed Gust Speed Precip Events Conditions
12:56 AM 38.8 °F 37.9 °F 97% 30.19 in 10.0 mi Calm Calm - N/A   Clear
1:56 AM 37.9 °F 36.9 °F 96% 30.20 in 10.0 mi Calm Calm - N/A   Clear
2:56 AM 36.9 °F 36.9 °F 100% 30.19 in 10.0 mi Calm Calm - N/A   Clear
3:56 AM 36.0 °F 36.0 °F 100% 30.19 in 10.0 mi Calm Calm - N/A   Clear
5:56 AM 34.9 °F 34.9 °F 100% 30.20 in 10.0 mi Calm Calm - N/A   Clear
6:56 AM 34.9 °F 34.9 °F 100% 30.21 in 10.0 mi Calm Calm - N/A   Clear
7:56 AM 37.9 °F 37.9 °F 100% 30.22 in 10.0 mi Calm Calm - N/A   Clear
8:56 AM 50.0 °F 43.9 °F 79% 30.23 in 10.0 mi Calm Calm - N/A   Clear
10:56 AM 61.9 °F 36.0 °F 38% 30.23 in 10.0 mi Calm Calm - N/A   Clear
11:56 AM 63.0 °F 36.0 °F 37% 30.23 in 10.0 mi Variable 3.5 mph - N/A   Clear
12:56 PM 63.0 °F 37.9 °F 40% 30.21 in 10.0 mi SSE 5.8 mph - N/A   Clear
1:56 PM 63.0 °F 36.9 °F 38% 30.18 in 10.0 mi Calm Calm - N/A   Clear
2:56 PM 61.9 °F 37.9 °F 41% 30.18 in 10.0 mi SSE 5.8 mph - N/A   Clear
3:56 PM 61.0 °F 41.9 °F 49% 30.17 in 10.0 mi Calm Calm - N/A   Partly Cloudy
4:20 PM 59.0 °F 44.6 °F 59% 30.08 in 10.0 mi Calm Calm - 0.00 in Rain Light Rain
4:56 PM 54.9 °F 52.0 °F 90% 30.15 in 4.0 mi ENE 3.5 mph - 0.00 in Rain Heavy Rain
5:12 PM 53.6 °F 51.8 °F 94% 30.07 in 5.0 mi Calm Calm - 0.01 in Rain Rain
5:21 PM 53.6 °F 51.8 °F 94% 30.08 in 5.0 mi Calm Calm - 0.01 in Rain Rain
5:33 PM 53.6 °F 51.8 °F 94% 30.09 in 5.0 mi Calm Calm - 0.02 in Rain Light Rain
5:56 PM 52.9 °F 52.9 °F 100% 30.18 in 5.0 mi Calm Calm - 0.02 in Rain Light Rain
6:27 PM 51.8 °F 51.8 °F 100% 30.11 in 2.5 mi Calm Calm - 0.01 in Rain Heavy Rain
6:49 PM 51.8 °F 48.2 °F 88% 30.12 in 8.0 mi Calm Calm - 0.01 in   Overcast
6:56 PM 50.9 °F 48.9 °F 93% 30.19 in 9.0 mi Calm Calm - 0.01 in   Overcast
7:05 PM 50.0 °F 48.2 °F 94% 30.12 in 6.0 mi Calm Calm - 0.00 in Rain Light Rain
7:56 PM 50.0 °F 50.0 °F 100% 30.22 in 10.0 mi Calm Calm - 0.00 in Rain Light Rain
8:23 PM 48.2 °F 48.2 °F 100% 30.13 in 10.0 mi Calm Calm - 0.01 in   Mostly Cloudy
9:56 PM 50.0 °F 50.0 °F 100% 30.22 in 10.0 mi Calm Calm - N/A   Mostly Cloudy
10:56 PM 50.9 °F 50.9 °F 100% 30.22 in 10.0 mi Calm Calm - N/A   Overcast